"Pseudo-MPEC" for P21AYXV

Created 2022 Nov 25 7:22:20 UT using Find_Orb

Click here for an explanation of pseudo-MPECs

 
 Astrometry: 
     P21AYXV* C2022 10 28)mV\3;UDxq+axTLB?bOj5-XnduJ`BrpK?bRA=v?h\ZA6acV#88F2F52
     P21AYXV  C2022 10 28ad-1KO]uU!qTB4*;W@uxW6;g:SgRSy9`Astrometry$Ciaxcsoq;F52
     P21AYXV  C2022 10 28^VV;v+m-B.t\;;ho:\3T`redacted;0D(B?click!l7PGLEwWl+SF52
     P21AYXV 3C2022 10 29%ihere;uXd5:QjTahVidvjVg``42+eDwpwQPAGKy1:mc^G$LXnkTT14
     P21AYXV 3C2022 10 298!Ayb/1Gt/yEa*O(Q'=nNZSO^Y-,$aE\DhEUiteh?Lsn.$HiA=UIT14
     P21AYXV 3C2022 10 29l:]Fa;kgx5/CEyfor=dA6j:^xs`g:W^pPdc*0%FVlxEujUm.v)xkT14
     P21AYXV KC2022 11 23.44234310 12 38.156+17 24 08.21   ~BNB7 20.96GVNEOCPI52
     P21AYXV KC2022 11 23.44403610 12 38.408+17 24 05.26   ~BNB7 21.87GVNEOCPI52
     P21AYXV KC2022 11 23.44572810 12 38.718+17 24 02.41   ~BNB7 21.80GVNEOCPI52
     P21AYXV KC2022 11 23.44742010 12 38.984+17 23 59.17   ~BNB7 21.57GVNEOCPI52
     P21AYXV KC2022 11 25BPd(=X_U(@,l]jWbj3Uh21d#f11nd-6:q?2PXgXRM%6r\xbI-+[rL01
     P21AYXV KC2022 11 25I88Z$UNhbe\4^HdpjvI=!9i77R`yexplanation]BK,Zd@8sn[3=L01
     P21AYXV KC2022 11 25IKegvUdyM?8W)H=\+9.kNrefk4GGdPM)=I9[@!:\XC+Oji46q`U]L01
     P21AYXV KC2022 11 25Qi*17H;,YAynC?o]!'Z`W:+(uqhP.s@m_1o)!3J(GsQ^O35j3tD;L01

Station data:
(F52) Pan-STARRS 2, Haleakala  (N20.707382 W156.255910)  US/Hawaii.
   Observers J. Bulger, T. Dukes, T. Lowe, A. Schultz, M. Willman. Measurers
   K. Chambers, S. Chastel, T. de Boer, L. Denneau, J. Fairlamb, H.
   Flewelling, M. Huber, C.-C. Lin, E. Magnier, Y. Ramanjooloo, R. Wainscoat,
   R. Weryk. 1.8-m Ritchey-Chrétien + CCD.
(I52) Steward Observatory, Mt. Lemmon Station  (N32.442544 W110.788920)
   US/Arizona.  Observers T. A. Pruyne, B. M. Africano, E. J. Christensen, G.
   A. Farneth, D. C. Fuls, A. R. Gibbs, A. D. Grauer, H. Gröller, J. A.
   Johnson, R. A. Kowalski, S. M. Larson, G. J. Leonard, D. Rankin, R. L.
   Seaman, F. C. Shelly, K. W. Wierzchoś. 1.0-m reflector + CCD.
(L01) Višnjan Observatory, Tičan  (N45.290897 E13.749300)  Croatia.
   Observers K. Korlević, D. Pujagic, V. Dobos. Measurers D. Pujagic, K.
   Korlević. 1.0-m f/2.9 reflector + CCD.
(T14) Mauna Kea-UH/Tholen NEO Follow-Up (CFHT)  (N19.825252 W155.468876)
   US/Hawaii. 3.6-m Canada-France-Hawaii Telescope.

Orbital elements:  P21AYXV
   Perihelion 2023 Mar 4.71816 TT = 17:14:09 (JD 2460008.21816)
Epoch 2022 Nov 25.0 TT = JDT 2459908.5   Earth MOID: 0.0133   Me: 0.0680
M 201.64464731                      (J2000 ecliptic)
n   1.58802917     Peri.  340.21402
a   0.72760732     Node   270.97024
e   0.4609824      Incl.    9.28372
P   0.62/226.69d   H   21.8     G   0.15   q 0.39219314  Q 1.06302151
8 of 14 observations 2022 Nov. 23-25 (38.3 hr); mean residual 0".28
Residuals in arcseconds: 
221028 F52(250'- 7359+)   221029 T14(235'- 7044+)   221125 L01  .38-  .33-    
221028 F52(249'- 7352+)   221123 I52  .10+  .07-    221125 L01  .17-  .44-    
221028 F52(249'- 7347+)   221123 I52  .27-  .01-    221125 L01  .38+  .04+    
221029 T14(235'- 7045+)   221123 I52  .20+  .14+    221125 L01  .38+  .61+    
221029 T14(235'- 7044+)   221123 I52  .03+  .10-    

Ephemerides (geocentric):
Date (UTC) HH   RA             Dec           delta  r     elong  mag " sig PA
---- --------  ------------   ------------  ------ ------ -----  --- --------
2022 11 25 07  10 18 00.278   +16 26 43.43  .32493 1.0513  92.2 21.9 166d  13
2022 11 25 08  10 18 07.714   +16 25 22.73  .32465 1.0512  92.2 21.9 166d  13
2022 11 25 09  10 18 15.157   +16 24 01.89  .32437 1.0512  92.3 21.9 166d  13
2022 11 25 10  10 18 22.607   +16 22 40.92  .32410 1.0511  92.3 21.9 166d  12
2022 11 25 11  10 18 30.065   +16 21 19.81  .32382 1.0510  92.3 21.9 166d  12
2022 11 25 12  10 18 37.529   +16 19 58.57  .32354 1.0510  92.3 21.9 166d  12
2022 11 25 13  10 18 45.001   +16 18 37.20  .32326 1.0509  92.3 21.9 166d  12
2022 11 25 14  10 18 52.480   +16 17 15.69  .32299 1.0508  92.3 21.9 166d  12
2022 11 25 15  10 18 59.966   +16 15 54.05  .32271 1.0507  92.3 21.9 166d  12
2022 11 25 16  10 19 07.459   +16 14 32.27  .32243 1.0507  92.3 21.9 166d  12
2022 11 25 17  10 19 14.960   +16 13 10.36  .32215 1.0506  92.3 21.9 166d  12
2022 11 25 18  10 19 22.468   +16 11 48.30  .32188 1.0505  92.3 21.9 166d  12
2022 11 25 19  10 19 29.984   +16 10 26.12  .32160 1.0504  92.3 21.9 166d  11
2022 11 25 20  10 19 37.507   +16 09 03.79  .32132 1.0504  92.3 21.9 166d  11
2022 11 25 21  10 19 45.037   +16 07 41.33  .32105 1.0503  92.3 21.9 166d  11
2022 11 25 22  10 19 52.575   +16 06 18.73  .32077 1.0502  92.3 21.9 166d  11
2022 11 25 23  10 20 00.120   +16 04 55.99  .32049 1.0502  92.3 21.9 166d  11
2022 11 26 00  10 20 07.673   +16 03 33.12  .32021 1.0501  92.3 21.9 166d  11
2022 11 26 01  10 20 15.233   +16 02 10.10  .31994 1.0500  92.3 21.9 166d  11
2022 11 26 02  10 20 22.800   +16 00 46.95  .31966 1.0499  92.3 21.9 166d  11
2022 11 26 03  10 20 30.376   +15 59 23.65  .31938 1.0499  92.4 21.9 166d  11
2022 11 26 04  10 20 37.958   +15 58 00.22  .31911 1.0498  92.4 21.9 166d  11
2022 11 26 05  10 20 45.549   +15 56 36.64  .31883 1.0497  92.4 21.9 166d  10
2022 11 26 06  10 20 53.147   +15 55 12.93  .31855 1.0496  92.4 21.9 166d  10
2022 11 26 07  10 21 00.752   +15 53 49.07  .31827 1.0496  92.4 21.9 166d  10
2022 11 26 08  10 21 08.366   +15 52 25.07  .31800 1.0495  92.4 21.9 166d  10
2022 11 26 09  10 21 15.987   +15 51 00.93  .31772 1.0494  92.4 21.9 165d  10
2022 11 26 10  10 21 23.615   +15 49 36.65  .31744 1.0493  92.4 21.9 165d  10
2022 11 26 11  10 21 31.252   +15 48 12.23  .31717 1.0493  92.4 21.9 165d  10
2022 11 26 12  10 21 38.896   +15 46 47.66  .31689 1.0492  92.4 21.8 165d  10
2022 11 26 13  10 21 46.548   +15 45 22.95  .31661 1.0491  92.4 21.8 165d  10
2022 11 26 14  10 21 54.208   +15 43 58.09  .31633 1.0490  92.4 21.8 165d   9
2022 11 26 15  10 22 01.875   +15 42 33.09  .31606 1.0490  92.4 21.8 165d   9
2022 11 26 16  10 22 09.551   +15 41 07.95  .31578 1.0489  92.4 21.8 165d   9
2022 11 26 17  10 22 17.234   +15 39 42.66  .31550 1.0488  92.4 21.8 165d   9
2022 11 26 18  10 22 24.925   +15 38 17.23  .31523 1.0487  92.4 21.8 165d   9
2022 11 26 19  10 22 32.624   +15 36 51.65  .31495 1.0486  92.4 21.8 165d   9
2022 11 26 20  10 22 40.331   +15 35 25.92  .31467 1.0486  92.4 21.8 165d   9
2022 11 26 21  10 22 48.046   +15 34 00.05  .31440 1.0485  92.4 21.8 165d   9
2022 11 26 22  10 22 55.770   +15 32 34.03  .31412 1.0484  92.4 21.8 165d   9
2022 11 26 23  10 23 03.501   +15 31 07.86  .31384 1.0483  92.5 21.8 165d   9
2022 11 27 00  10 23 11.240   +15 29 41.55  .31356 1.0483  92.5 21.8 165d   8
2022 11 27 01  10 23 18.987   +15 28 15.09  .31329 1.0482  92.5 21.8 165d   8
2022 11 27 02  10 23 26.743   +15 26 48.47  .31301 1.0481  92.5 21.8 165d   8
2022 11 27 03  10 23 34.506   +15 25 21.71  .31273 1.0480  92.5 21.8 165d   8
2022 11 27 04  10 23 42.278   +15 23 54.80  .31246 1.0479  92.5 21.8 165d   8
2022 11 27 05  10 23 50.058   +15 22 27.74  .31218 1.0479  92.5 21.8 165d   8
2022 11 27 06  10 23 57.846   +15 21 00.53  .31190 1.0478  92.5 21.8 165d   8